Flag for United Kingdom Weather past 2 weeks in West Bromwich, England, United Kingdom

Now
43 °F

Passing clouds.


Feels Like: 39 °F
Forecast: 41 / 52 °F
Wind: 6 mph from Southwest

Location: Birmingham / Airport

Current Time: Mar 6, 2015 at 6:39:19 AM

Latest Report: Mar 6, 2015 at 6:20 AM


Visibility: N/A

Pressure: 30.51 "Hg

Humidity: 76%

Dew point: 36 °F

Location of West BromwichLocation

Historic Weather in West Bromwich — Graph

°F

West Bromwich temperature yesterday

Maximum temperature yesterday: 48 °F (at 2:20 PM)
Minimum temperature yesterday: 32 °F (at 3:20 AM)
Average temperature yesterday: 43 °F

Past Weeks' High & Low Weather Summary

 TemperatureHumidityPressure
High52 °F (Feb 25, 1:20 PM)100% (Feb 22, 7:20 PM)30.66 "Hg (Feb 22, 7:20 PM)
Low32 °F (Feb 21, 11:20 PM)39% (Mar 2, 2:50 PM)29.12 "Hg (Feb 23, 5:20 PM)
Average42 °F76%29.81 "Hg
* Reported Feb 19 5:20 AM — Mar 6 5:20 AM, West Bromwich, Weather by CustomWeather, © 2015

Note: Actual official high and low records may vary slightly from our data, if they occured in-between our weather recording intervals... More about our weather records

Advertising

West Bromwich weather history for previous 24 hours

 ConditionsComfort  
Time TempWeatherWind HumidityBarometerVisibility
5:20 AM
Fri, Mar 6
43 °FOvercast.5 mph76%30.54 "HgN/A
4:50 AM43 °FOvercast.6 mph76%30.51 "HgN/A
4:20 AM45 °FOvercast.6 mph71%30.54 "HgN/A
3:50 AM45 °FOvercast.6 mph66%30.54 "HgN/A
3:20 AM45 °FOvercast.7 mph66%30.54 "HgN/A
2:50 AM45 °FOvercast.7 mph66%30.54 "HgN/A
2:20 AM45 °FOvercast.7 mph66%30.54 "HgN/A
1:50 AM45 °FOvercast.8 mph66%30.57 "HgN/A
1:20 AM45 °FOvercast.7 mph66%30.57 "HgN/A
12:50 AM45 °FOvercast.6 mph71%30.57 "HgN/A
12:20 AM45 °FPassing clouds.7 mph66%30.57 "HgN/A
11:50 PM
Thu, Mar 5
45 °FPassing clouds.7 mph66%30.57 "HgN/A
11:20 PM45 °FOvercast.7 mph71%30.57 "HgN/A
10:50 PM46 °FPassing clouds.8 mph66%30.57 "HgN/A
10:20 PM46 °FPassing clouds.8 mph66%30.57 "HgN/A
9:50 PM46 °FPassing clouds.9 mph66%30.60 "HgN/A
9:20 PM46 °FOvercast.10 mph66%30.60 "HgN/A
8:20 PM46 °FPassing clouds.5 mph66%30.60 "HgN/A
7:50 PM46 °FPassing clouds.7 mph66%30.60 "HgN/A
7:20 PM46 °FPassing clouds.5 mph66%30.60 "HgN/A
6:50 PM46 °FPassing clouds.5 mph66%30.57 "HgN/A
6:20 PM46 °FPassing clouds.5 mph66%30.57 "HgN/A
5:50 PM46 °FPartly sunny.7 mph66%30.60 "HgN/A
5:20 PM46 °FPartly sunny.8 mph66%30.60 "HgN/A
4:50 PM48 °FPartly sunny.7 mph62%30.60 "HgN/A
4:20 PM48 °FPartly sunny.9 mph66%30.60 "HgN/A
3:50 PM48 °FBroken clouds.9 mph66%30.60 "HgN/A
3:20 PM48 °FPartly sunny.10 mph66%30.60 "HgN/A
2:50 PM48 °FPartly sunny.10 mph62%30.60 "HgN/A
2:20 PM48 °FPartly sunny.10 mph62%30.60 "HgN/A
1:50 PM46 °FMostly cloudy.10 mph66%30.63 "HgN/A
1:20 PM46 °FMostly cloudy.8 mph71%30.63 "HgN/A
12:50 PM46 °FMore clouds than sun.8 mph71%30.63 "HgN/A
12:20 PM46 °FMore clouds than sun.8 mph76%30.63 "HgN/A
11:50 AM45 °FCloudy.9 mph81%30.63 "HgN/A
11:20 AM46 °FPartly sunny.9 mph71%30.63 "HgN/A
10:50 AM45 °FPartly sunny.10 mph76%30.63 "HgN/A
10:20 AM43 °FPartly sunny.7 mph81%30.66 "HgN/A
9:50 AM41 °FPartly sunny.7 mph81%30.66 "HgN/A
9:20 AM41 °FPartly sunny.9 mph81%30.66 "HgN/A
8:50 AM39 °FPartly sunny.7 mph81%30.66 "HgN/A
8:20 AM37 °FPartly sunny.6 mph87%30.66 "HgN/A
7:50 AM37 °FPassing clouds.7 mph81%30.66 "HgN/A
7:20 AM36 °FSunny.7 mph87%30.66 "Hg10 mi
6:50 AM36 °FSunny.7 mph81%30.66 "Hg10 mi
6:20 AM36 °FClear.8 mph87%30.66 "Hg10 mi
Weather by CustomWeather, © 2015

See weather overviewHow to use our weather pages